Casper, WY

9:28 AM MST on December 06, 2019 (GMT -0700)
Natrona County International

Weather History for KCPR - October, 2019

Change the Weather History Date:

Sunday, October 13, 2019

  Actual Average Record
Temperature  
Mean Temperature 43 °F 46 °F  
Max Temperature 66 °F 61 °F 80 °F (1958)
Min Temperature 20 °F 32 °F 9 °F (1969)
Degree Days  
Heating Degree Days 22 19  
Month to date heating degree days 292 220  
Since 1 July heating degree days 463 505  
Cooling Degree Days 0 0  
Month to date cooling degree days 0 0  
Year to date cooling degree days 441 422  
Moisture  
Dew Point 16 °F    
Average Humidity 49    
Maximum Humidity 84    
Minimum Humidity 13    
Precipitation  
Precipitation 0.00 in 0.04 in 0.56 in (1966)
Month to date precipitation 0.42 0.50  
Year to date precipitation 11.12 10.66  
Snow  
Snow 0.00 in 0.20 in - ()
Month to date snowfall 2.4 2.6  
Since 1 July snowfall 2.4 4.4  
Since 1 September snowfall 2.4 4.4  
Snow Depth 0.00 in    
Sea Level Pressure  
Sea Level Pressure 29.91 in    
Wind  
Wind Speed 11 mph (SW)    
Max Wind Speed 24 mph    
Max Gust Speed 31 mph    
Visibility 10 miles    
Events      
T = Trace of Precipitation, MM = Missing Value Source: NWS Daily Summary

Daily Weather History Graph

Daily Weather History Graph

Search for Another Location

Airport or City:

Astronomy

Oct. 13, 2019 Rise Set
Actual Time 7:16 AM MDT 6:26 PM MDT
Civil Twilight 6:48 AM MDT 6:55 PM MDT
Nautical Twilight 6:15 AM MDT 7:27 PM MDT
Astronomical Twilight 5:42 AM MDT 8:00 PM MDT
Moon 6:51 PM MDT (10/13) 6:51 AM MDT (10/13)
Length of Visible Light 12h 07m
Length of Day
11h 10m
Full, 100% of the Moon is Illuminated
Oct 13
Full
Oct 13
Full
Oct 21
Last Quarter
Oct 27
New
Nov 4
First Quarter

Hourly Weather History & Observations

Time (MDT) Temp. Windchill Dew Point Humidity Pressure Visibility Wind Dir Wind Speed Gust Speed Precip Events Conditions
12:53 AM 25.0 °F 20.7 °F 17.1 °F 72% 29.96 in 10.0 mi WNW 3.5 mph - N/A   Clear
1:53 AM 23.0 °F - 17.1 °F 78% 29.96 in 10.0 mi Calm Calm - N/A   Clear
2:53 AM 24.1 °F 19.7 °F 16.0 °F 71% 29.95 in 10.0 mi WNW 3.5 mph - N/A   Clear
3:53 AM 19.9 °F - 16.0 °F 85% 29.95 in 10.0 mi Calm Calm - N/A   Clear
4:53 AM 30.0 °F 20.5 °F 17.1 °F 59% 29.92 in 10.0 mi SW 11.5 mph - N/A   Clear
5:53 AM 35.1 °F 28.6 °F 15.1 °F 44% 29.92 in 10.0 mi SW 8.1 mph - N/A   Clear
6:53 AM 30.0 °F 21.7 °F 15.1 °F 54% 29.98 in 10.0 mi West 9.2 mph - N/A   Clear
7:53 AM 33.1 °F 24.9 °F 16.0 °F 50% 30.00 in 10.0 mi SW 10.4 mph - N/A   Clear
8:53 AM 44.1 °F 35.9 °F 16.0 °F 32% 29.98 in 10.0 mi SSW 19.6 mph 25.3 mph N/A   Clear
9:53 AM 48.0 °F - 15.1 °F 27% 29.98 in 10.0 mi SSW 23.0 mph 31.1 mph N/A   Clear
10:53 AM 52.0 °F - 16.0 °F 24% 29.98 in 10.0 mi SSW 19.6 mph - N/A   Clear
11:53 AM 55.0 °F - 17.1 °F 23% 29.96 in 10.0 mi South 19.6 mph - N/A   Clear
12:53 PM 60.1 °F - 16.0 °F 18% 29.92 in 10.0 mi SSW 19.6 mph - N/A   Clear
1:53 PM 63.0 °F - 15.1 °F 16% 29.90 in 10.0 mi SSW 16.1 mph 26.5 mph N/A   Clear
2:53 PM 64.0 °F - 12.9 °F 14% 29.88 in 10.0 mi SW 16.1 mph 21.9 mph N/A   Clear
3:53 PM 64.9 °F - 12.0 °F 13% 29.87 in 10.0 mi WSW 12.7 mph 26.5 mph N/A   Clear
4:53 PM 64.9 °F - 12.0 °F 13% 29.82 in 10.0 mi WSW 10.4 mph - N/A   Clear
5:53 PM 59.0 °F - 18.0 °F 20% 29.82 in 10.0 mi SSW 8.1 mph - N/A   Clear
6:53 PM 48.0 °F - 16.0 °F 28% 29.89 in 10.0 mi WNW 8.1 mph - N/A   Clear
7:53 PM 42.1 °F 38.4 °F 16.0 °F 35% 29.91 in 10.0 mi SW 5.8 mph - N/A   Clear
8:53 PM 43.0 °F 37.2 °F 16.0 °F 34% 29.87 in 10.0 mi West 10.4 mph - N/A   Clear
9:53 PM 41.0 °F 35.2 °F 15.1 °F 35% 29.86 in 10.0 mi SW 9.2 mph - N/A   Clear
10:53 PM 41.0 °F 34.7 °F 15.1 °F 35% 29.84 in 10.0 mi WSW 10.4 mph - N/A   Clear
11:53 PM 41.0 °F 35.2 °F 14.0 °F 33% 29.82 in 10.0 mi SW 9.2 mph - N/A   Clear